Regional Weather Roundup
Issued by NWS

Home | Current Version | Previous Version | Text Only | Print | Product List | Glossary Off
Versions: 1 2 3 4 5 6 7 8 9 10 11 12 13 14 15 16 17 18 19 20 21 22 23 24 25 26 27 28 29 30 31 32 33 34 35 36 37 38 39 40 41 42 43 44 45 46 47 48 49 50

000
ASUS44 KMEG 041010
RWRTN
TENNESSEE HOURLY STATE WEATHER ROUNDUP
NATIONAL WEATHER SERVICE MEMPHIS TN
500 AM CDT TUE AUG 04 2015

TNZ002-004-019-021-049-052-054-088>092-041100-
WEST TENNESSEE

CITY           SKY/WX    TMP DP  RH WIND       PRES   REMARKS
MEMPHIS INTL   PTCLDY    78  70  76 CALM      29.96R
NWS MEMPHIS      N/A     74 N/A N/A MISG        N/A
JACKSON        PTCLDY    71  68  90 CALM      29.96R
DYERSBURG        N/A    N/A N/A N/A MISG        N/A
PARIS          CLEAR     68  66  94 CALM      29.97R
LEXINGTON      CLEAR     70  70 100 CALM      29.97R
$$

TNZ008-025-027-028-033-062-065-066-041100-
NORTH MIDDLE TENNESSEE

CITY           SKY/WX    TMP DP  RH WIND       PRES   REMARKS
NASHVILLE      PTCLDY    73  68  84 S6        29.97S
CLARKSVILLE    CLEAR     71  69  93 CALM      29.96R
SMYRNA         CLEAR     70  70 100 CALM      29.98S FOG
CROSSVILLE     CLEAR     67  64  90 CALM      30.05R
$$

TNZ061-075-076-078-094-096-097-041100-
SOUTH MIDDLE TENNESSEE

CITY           SKY/WX    TMP DP  RH WIND       PRES   REMARKS
FAYETTEVILLE   CLEAR     70  68  94 CALM      30.00R
TULLAHOMA      CLEAR     66  64  94 CALM      30.01S
WINCHESTER     CLEAR     66  64  94 CALM      30.00S
MCMINNVILLE    MOCLDY    66  66 100 CALM      30.01R VSB 1/2
COLUMBIA       CLEAR     70  70 100 CALM      29.97S
SHELBYVILLE    CLEAR     72  72 100 E3        30.00R
$$

TNZ017-018-042-046-047-041100-
NORTHEAST TENNESSEE

CITY           SKY/WX    TMP DP  RH WIND       PRES   REMARKS
TRI CITIES     MOCLDY    66  62  87 S5        30.01F
ELIZABETHTON   SUNNY     61  57  88 CALM      30.04S
$$

TNZ012-013-036-069-073-074-041100-
CENTRAL EAST TENNESSEE

CITY           SKY/WX    TMP DP  RH WIND       PRES   REMARKS
KNOXVILLE      PTCLDY    69  64  84 NE3       29.99S
OAK RIDGE      CLEAR     70  67  90 CALM      30.01R
GATLINBURG     SUNNY     64  59  82 CALM      30.00S
MORRISTOWN     SUNNY     70  64  83 CALM      30.03S
$$

TNZ083-085-099-041100-
SOUTHEAST TENNESSEE

CITY           SKY/WX    TMP DP  RH WIND       PRES   REMARKS
CHATTANOOGA    PTCLDY    72  65  78 CALM      29.99R
$$

SKY/WX REPORTED AS FAIR MEANS FEW OR NO CLOUDS BELOW
12 THOUSAND FEET.




USA.gov is the U.S. government's official web portal to all federal, state and local government web resources and services.